Powrót do katalogu

NAVSTAR 84

USA 545

AktywnyNawigacjaHEO
NORAD 64202·PAYLOAD·🇺🇸 United States

Wystrzelony May 30, 2025 z Cape Canaveral Space Force Station

Loading…

Następne Przeloty (najbliższe 24 godziny)

TLE

ŚwieżeSource: CelesTrak SupGP

Epoka: Sep 16, 2026, 16:44 UTC

1 64202C 25116A   26259.69756944  .00000000  00000+0  00000+0 0  2590
2 64202  55.2936  27.4551 0009042 334.9535 294.8238  2.00569475    12

Śledź NAVSTAR 84 w czasie rzeczywistym z AllMySat

Download on the App Store